リニア彗星

C/1998 M4 ( LINEAR )

English version
Home page
Updated on March 26, 1999

---------------------------------------------------------------------

・ プロフィール

発見日 1998年6月25日
発見光度 17.5等
発見者 Lincoln Laboratory Near-Earth Asteroid Research project

・ 軌道要素

   The following improved orbital elements by Kenji Muraoka are 
  from 115 observations  1998 June 25 to Sept. 4, perturbations 
  by 9 Planets, Moon and 5 minor planets were taken into account.
   The mean residual is +/- 0.70 arc seconds.

      Epoch  =  1997 Dec. 18.0  TT       JDT = 2450800.5
          T  =  1997 Dec. 10.29421       +/- 0.08230 (m.e.) TT
       Peri. =  106.31401                +/- 0.02029
       Node  =   92.90047                +/- 0.02521   (2000.0)
       Incl. =  154.58216                +/- 0.01235
          q  =    2.6007208              +/- 0.0004488 AU
          e  =    0.9986194              +/- 0.0007039
        1/a  =   +0.0005309              +/- 0.0002707 1/AU
        ( P  =  81758 years )

・ 星図

・ 光度変化

        m1 = 8.0 + 5 logΔ + 10.0 log r

---------------------------------------------------------------------

軌道要素は村岡健治氏の計算によるものです。
星図は StellaNavigator Ver.2.0 for Windows (アストロアーツ 編著 / アスキー出版局刊) で作成したものです。
光度グラフはComet for Windowsで作成したものです。

---------------------------------------------------------------------

Copyright(C) Seiichi Yoshida (comet@aerith.net). All rights reserved.